Home > Weather > Bühl > Past weeks

Flag for Germany Past Weather in Bühl, Baden-Württemberg, Germany — Yesterday and Last 2 Weeks

Now
61 °F

Sunny.


Feels Like: 61 °F
Forecast: 57 / 80 °F
Wind: 6 mph from Northeast

Location: Karlsruhe - Baden Wurttemberg

Current Time: May 27, 2016 at 8:36:13 AM

Latest Report: May 27, 2016 at 7:50 AM


Visibility: 10 mi

Pressure: 29.95 "Hg

Humidity: 88%

Dew Point: 57 °F

Location of BühlLocation

Past Weather in Bühl — Graph

°F

Bühl Temperature Yesterday

Maximum temperature yesterday: 75 °F (at 3:20 PM)
Minimum temperature yesterday: 48 °F (at 5:20 AM)
Average temperature yesterday: 64 °F

High & Low Weather Summary for the Past Weeks

 TemperatureHumidityPressure
High81 °F (May 22, 3:50 PM)100% (May 12, 10:20 AM)30.18 "Hg (May 12, 10:20 AM)
Low43 °F (May 15, 4:20 AM)32% (May 22, 1:50 PM)29.47 "Hg (May 12, 5:20 PM)
Average57 °F77%29.93 "Hg
* Reported May 12 7:20 AM — May 27 7:20 AM, Bühl, Weather by CustomWeather, © 2016

Note: Actual official high and low records may vary slightly from our data, if they occured in-between our weather recording intervals... More about our weather records

Advertising

Bühl Weather History for the Previous 24 Hours

Scroll right to see more
 ConditionsComfort  
Time TempWeatherWind HumidityBarometerVisibility
7:20 AM
Fri, May 27
59 °FSunny.3 mph94%29.95 "Hg10 mi
6:50 AM59 °FSunny.6 mph94%29.95 "Hg10 mi
6:20 AM59 °FClear.5 mph94%29.92 "Hg10 mi
5:50 AM59 °FClear.7 mph94%29.92 "Hg10 mi
5:20 AM59 °FClear.8 mph94%29.92 "Hg10 mi
4:50 AM59 °FPassing clouds.6 mph94%29.92 "HgN/A
1:20 AM64 °FClear.6 mph73%29.89 "Hg10 mi
12:50 AM64 °FClear.7 mph73%29.89 "Hg10 mi
11:20 PM
Thu, May 26
64 °FClear.7 mph73%29.92 "Hg10 mi
10:50 PM64 °FClear.6 mph73%29.92 "Hg10 mi
10:20 PM68 °FClear.7 mph64%29.92 "Hg10 mi
9:50 PM68 °FSunny.8 mph64%29.92 "Hg10 mi
9:20 PM66 °FSunny.8 mph68%29.92 "Hg10 mi
8:50 PM68 °FPassing clouds.7 mph64%29.92 "HgN/A
8:20 PM70 °FSunny.8 mph64%29.92 "Hg10 mi
7:50 PM73 °FSunny.8 mph53%29.92 "Hg10 mi
7:20 PM75 °FSunny.9 mph50%29.92 "Hg10 mi
6:50 PM75 °FSunny.9 mph47%29.92 "Hg10 mi
6:20 PM75 °FSunny.9 mph54%29.92 "Hg10 mi
5:50 PM75 °FSunny.9 mph54%29.92 "Hg10 mi
5:20 PM75 °FPassing clouds.8 mph50%29.92 "HgN/A
4:50 PM73 °FSunny.7 mph53%29.95 "Hg10 mi
4:20 PM73 °FSunny.8 mph53%29.95 "Hg10 mi
3:50 PM75 °FSunny.9 mph54%29.95 "Hg10 mi
3:20 PM75 °FPassing clouds.7 mph54%29.95 "HgN/A
2:50 PM73 °FPassing clouds.6 mph50%29.98 "HgN/A
2:20 PM73 °FPassing clouds.5 mph50%29.98 "HgN/A
1:50 PM72 °FPassing clouds.5 mph57%29.98 "HgN/A
1:20 PM72 °FPassing clouds.5 mph57%29.98 "HgN/A
12:50 PM70 °FSunny.6 mph64%29.98 "Hg10 mi
12:20 PM68 °FPassing clouds.6 mph64%29.98 "HgN/A
11:50 AM66 °FPassing clouds.5 mph73%29.98 "HgN/A
11:20 AM66 °FSunny.3 mph73%30.01 "Hg10 mi
10:50 AM64 °FSunny.3 mph73%30.01 "Hg10 mi
10:20 AM63 °FSunny.3 mph77%30.01 "Hg10 mi
9:50 AM61 °FSunny.2 mph83%30.01 "Hg10 mi
9:20 AM59 °FSunny.2 mph88%30.01 "Hg10 mi
8:50 AM57 °FSunny.2 mph88%30.01 "Hg10 mi
8:20 AM55 °FPassing clouds.1 mph94%30.01 "Hg4 mi
Weather by CustomWeather, © 2016

See weather overviewHow to use our weather pages